Regional Weather Roundup
Issued by NWS

Home | Current Version | Previous Version | Graphics & Text | Print | Product List | Glossary On
Versions: 1 2 3 4 5 6 7 8 9 10 11 12 13 14 15 16 17 18 19 20 21 22 23 24 25 26 27 28 29 30 31 32 33 34 35 36 37 38 39 40 41 42 43 44 45 46 47 48 49 50
000
ASUS43 KLMK 051610
RWRKY
KENTUCKY REGIONAL WEATHER ROUNDUP
NATIONAL WEATHER SERVICE LOUISVILLE KY
1200 PM EDT SUN JUL 05 2015

NOTE "FAIR" INDICATES FEW OR NO CLOUDS BELOW 12,000 FEET
WITH NO SIGNIFICANT WEATHER AND/OR OBSTRUCTIONS TO VISIBILITY.

KYZ001>023-026-027-061>063-070>075-051700-
WESTERN AND SOUTH CENTRAL KENTUCKY

CITY           SKY/WX    TMP DP  RH WIND       PRES   REMARKS
PADUCAH        MOSUNNY   79  68  69 CALM      30.07F
HENDERSON      PTSUNNY   79  68  69 CALM      30.06S
OWENSBORO      PTSUNNY   81  72  74 W3        30.07S HAZE
HOPKINSVILLE   MOSUNNY   80  71  74 NW6       30.07F
BOWLING GREEN  CLOUDY    74  68  81 W6        30.07F
GLASGOW        CLOUDY    73  69  88 NE6       30.08F
$$

KYZ024-025-028>034-038-045-046-053-051700-
NORTH CENTRAL KENTUCKY

CITY           SKY/WX    TMP DP  RH WIND       PRES   REMARKS
LOUISVILLE/SDF CLOUDY    76  66  71 E7        30.08S
LOUISVILLE/LOU CLOUDY    75  65  70 E5        30.09S
FORT KNOX      LGT RAIN  73  68  83 VRB2      30.08S
$$

KYZ035>037-039>044-047>052-055>060-089>105-051700-
NORTHEAST KENTUCKY

CITY           SKY/WX    TMP DP  RH WIND       PRES   REMARKS
LEXINGTON      LGT RAIN  72  66  81 CALM      30.10R
COVINGTON      CLOUDY    74  60  61 E7        30.12R
FRANKFORT      CLOUDY    74  61  63 VRB5      30.09S
$$

KYZ054-064>069-076>088-106>120-051700-
SOUTHEAST KENTUCKY

CITY           SKY/WX    TMP DP  RH WIND       PRES   REMARKS
JACKSON        LGT RAIN  69  67  93 VRB3      30.11R FOG
LONDON         LGT RAIN  70  65  84 N7        30.08F
SOMERSET       DRIZZLE   68  68 100 N6        30.10S
MIDDLESBORO    RAIN      71  67  88 S5        30.08F
MONTICELLO     PTSUNNY   72  71  96 NW8       30.11S FOG
$$



USA.gov is the U.S. government's official web portal to all federal, state and local government web resources and services.